Home   Weather   Odder Kommune   Past weeks
Flag for Denmark

Past Weather in Odder Kommune, Denmark — Yesterday and Last 2 Weeks

Now
63 °F

Mild.


Feels Like: 63 °F
Forecast: 58 / 46 °F
Wind: 13 mph from East

Location: Tirstrup

Current Time: Apr 26, 2019 at 12:06:46 pm

Latest Report: Apr 26, 2019 at 11:20 am


Visibility: N/A

Pressure: 29.83 "Hg

Humidity: 64%

Dew Point: 50 °F

Location of Odder KommuneLocation

Past Weather in Odder Kommune — Graph

°F

Odder Kommune Temperature Yesterday

Maximum temperature yesterday: 66 °F (at 2:50 pm)
Minimum temperature yesterday: 50 °F (at 1:50 am)
Average temperature yesterday: 57 °F

High & Low Weather Summary for the Past Weeks

 TemperatureHumidityPressure
High68 °F (Apr 21, 2:50 pm)100% (Apr 16, 7:20 am)30.66 "Hg (Apr 16, 7:20 am)
Low21 °F (Apr 13, 5:50 am)22% (Apr 20, 2:50 pm)29.77 "Hg (Apr 25, 1:20 am)
Average46 °F65%30.32 "Hg
* Reported Apr 11 10:20 am — Apr 26 10:50 am, Odder Kommune. Weather by CustomWeather, © 2019

Note: Actual official high and low records may vary slightly from our data, if they occured in-between our weather recording intervals... More about our weather records

Advertising

Odder Kommune Weather History for the Previous 24 Hours

Scroll right to see more
 ConditionsComfort  
Time TempWeatherWind HumidityBarometerVisibility
10:50 am
Fri, Apr 26
63 °FMild.13 mph68%29.83 "HgN/A
10:20 am61 °FPassing clouds.12 mph72%29.86 "HgN/A
9:50 am59 °FScattered clouds.10 mph77%29.86 "HgN/A
9:20 am55 °FPartly sunny.9 mph88%29.86 "Hg6 mi
8:50 am55 °FPartly sunny.10 mph88%29.86 "Hg5 mi
8:20 am54 °FPartly sunny.8 mph88%29.86 "Hg5 mi
7:50 am54 °FOvercast.8 mph88%29.86 "Hg5 mi
7:20 am54 °FOvercast.9 mph88%29.86 "Hg4 mi
6:50 am54 °FOvercast.8 mph88%29.86 "Hg3 mi
6:20 am54 °FFog.8 mph94%29.86 "Hg2 mi
5:50 am52 °FFog.8 mph94%29.86 "Hg2 mi
5:20 am52 °FFog.5 mph94%29.89 "Hg2 mi
4:50 am52 °FFog.6 mph94%29.89 "Hg2 mi
4:20 am52 °FFog.7 mph94%29.89 "Hg2 mi
3:50 am50 °FFog.5 mph94%29.89 "Hg1 mi
3:20 am48 °FFog.2 mph94%29.89 "Hg2 mi
2:50 am50 °FPassing clouds.5 mph94%29.89 "Hg1 mi
2:20 am46 °FFog.1 mph93%29.89 "Hg0 mi
1:50 am48 °FLight fog.2 mph94%29.92 "Hg0 mi
1:20 am50 °FPassing clouds.3 mph88%29.92 "HgN/A
12:50 am50 °FFog.1 mph94%29.92 "Hg2 mi
12:20 am52 °FCool.1 mph94%29.92 "HgN/A
11:50 pm
Thu, Apr 25
52 °FFog.3 mph94%29.92 "Hg1 mi
11:20 pm54 °FCool.3 mph88%29.92 "Hg5 mi
10:50 pm54 °FCool.2 mph88%29.92 "HgN/A
10:20 pm54 °FCool.6 mph88%29.92 "HgN/A
9:50 pm54 °FCool.5 mph88%29.92 "HgN/A
9:20 pm55 °FCool.3 mph82%29.92 "HgN/A
8:50 pm57 °FCool.5 mph72%29.89 "HgN/A
8:20 pm59 °FCool.6 mph72%29.89 "HgN/A
7:50 pm61 °FCool.5 mph63%29.89 "HgN/A
7:20 pm63 °FMild.7 mph64%29.86 "HgN/A
6:50 pm63 °FClear.7 mph68%29.89 "HgN/A
6:20 pm63 °FMild.6 mph68%29.89 "HgN/A
5:50 pm64 °FClear.8 mph64%29.89 "HgN/A
5:20 pm64 °FClear.5 mph60%29.89 "HgN/A
4:50 pm64 °FPassing clouds.6 mph64%29.89 "HgN/A
4:20 pm66 °FPassing clouds.7 mph60%29.89 "HgN/A
3:50 pm66 °FPassing clouds.7 mph64%29.86 "HgN/A
3:20 pm66 °FPassing clouds.6 mph64%29.86 "HgN/A
2:50 pm66 °FPartly sunny.6 mph64%29.83 "HgN/A
1:50 pm64 °FScattered clouds.7 mph68%29.83 "HgN/A
1:20 pm64 °FPartly sunny.5 mph64%29.83 "HgN/A
12:50 pm63 °FPartly sunny.7 mph68%29.83 "HgN/A
12:20 pm63 °FPassing clouds.6 mph68%29.83 "HgN/A
Weather by CustomWeather, © 2019

See weather overview